EW7711 Weather Reports


Display with metric or nautical units.
time (UTC)temp
F
wind
direction
speed
MPH
gust
MPH
rain 1hr
in
rain 24hr
in
rain mn
in
humidity
%
barometer
mb
20260502161819 64 309 9.0 13.0 0.00 0.00 0.00 34 1016.7
20260502152018 59 295 7.0 10.0 0.00 0.00 0.00 38 1016.8
20260502151117 58 292 8.0 11.0 0.00 0.00 0.00 38 1016.6
20260502130417 45 247 5.0 7.0 0.00 0.00 0.00 55 1016.6
20260502123417 43 243 7.0 9.0 0.00 0.00 0.00 57 1016.4
20260502120418 42 247 4.0 5.0 0.00 0.00 0.00 57 1016.4
20260502115416 42 180 6.0 7.0 0.00 0.00 0.00 57 1016.4
20260502114416 43 180 5.0 6.0 0.00 0.00 0.00 55 1016.6
20260502112516 43 195 5.0 6.0 0.00 0.00 0.00 53 1016.8
20260502111616 43 182 7.0 9.0 0.00 0.00 0.00 53 1016.8
20260502110616 43 191 7.0 9.0 0.00 0.00 0.00 53 1016.9
20260502105634 43 238 6.0 8.0 0.00 0.00 0.00 54 1017.1
20260502104719 44 247 5.0 7.0 0.00 0.00 0.00 53 1017.3
20260502103816 44 226 7.0 12.0 0.00 0.00 0.00 53 1017.4
20260502102818 43 245 5.0 6.0 0.00 0.00 0.00 55 1017.4
20260502101917 44 243 7.0 9.0 0.00 0.00 0.00 53 1017.5
20260502091116 42 230 12.0 15.0 0.00 0.00 0.00 55 1018.1
20260502090118 41 180 9.0 14.0 0.00 0.00 0.00 57 1018.0
20260502071318 41 247 4.0 5.0 0.00 0.00 0.00 54 1019.1
20260502070316 41 247 4.0 5.0 0.00 0.00 0.00 55 1019.4
20260502065316 41 247 5.0 6.0 0.00 0.00 0.00 55 1019.5
20260502064317 40 180 6.0 7.0 0.00 0.00 0.00 55 1019.4
20260502063417 40 186 6.0 9.0 0.00 0.00 0.00 56 1019.2
20260502062417 40 180 4.0 6.0 0.00 0.00 0.00 55 1019.5
20260502060417 42 180 5.0 6.0 0.00 0.00 0.00 53 1019.8
20260502055429 42 180 5.0 6.0 0.00 0.00 0.00 51 1019.9
20260502054431 42 247 5.0 7.0 0.00 0.00 0.00 52 1019.9
20260502053431 42 247 5.0 6.0 0.00 0.00 0.00 50 1020.0
20260502052432 42 180 6.0 7.0 0.00 0.00 0.00 52 1020.1
20260502051431 42 180 5.0 5.0 0.00 0.00 0.00 52 1020.2
20260502050432 42 247 5.0 7.0 0.00 0.00 0.00 51 1020.3
20260502044430 43 247 5.0 6.0 0.00 0.00 0.00 50 1020.3
20260502043430 43 247 5.0 6.0 0.00 0.00 0.00 49 1020.3
20260502042529 43 247 5.0 7.0 0.00 0.00 0.00 50 1020.4
20260502041530 43 247 5.0 6.0 0.00 0.00 0.00 50 1020.5
20260502040529 44 180 3.0 4.0 0.00 0.00 0.00 49 1020.6
20260502035532 44 180 4.0 6.0 0.00 0.00 0.00 49 1020.7
20260502034531 45 180 4.0 6.0 0.00 0.00 0.00 47 1020.8
20260502030529 47 247 4.0 5.0 0.00 0.00 0.00 45 1020.9
20260502025530 48 247 3.0 5.0 0.00 0.00 0.00 44 1020.9
20260502024532 48 247 5.0 6.0 0.00 0.00 0.00 44 1020.9
20260502023531 49 247 3.0 4.0 0.00 0.00 0.00 43 1020.9
20260502022529 50 247 4.0 5.0 0.00 0.00 0.00 42 1020.8
20260502020545 52 247 4.0 5.0 0.00 0.00 0.00 39 1021.1
20260502015632 53 247 5.0 6.0 0.00 0.00 0.00 39 1020.9
20260502014730 54 180 5.0 5.0 0.00 0.00 0.00 40 1021.1
20260502012832 57 180 5.0 6.0 0.00 0.00 0.00 34 1021.0
20260502011929 59 180 6.0 7.0 0.00 0.00 0.00 33 1021.1
20260502010930 60 219 6.0 7.0 0.00 0.00 0.00 31 1021.2
20260502005929 61 180 6.0 7.0 0.00 0.00 0.00 29 1021.2
20260502003930 62 180 6.0 9.0 0.00 0.00 0.00 27 1021.3
20260502003030 62 180 7.0 10.0 0.00 0.00 0.00 26 1021.2
20260502002032 63 244 8.0 10.0 0.00 0.00 0.00 26 1021.3
20260502000032 63 180 2.0 4.0 0.00 0.00 0.00 26 1021.5
20260501234130 63 261 1.0 3.0 0.00 0.00 0.00 25 1021.4
20260501233229 62 259 5.0 7.0 0.00 0.00 0.00 24 1021.6
20260501232229 62 274 4.0 7.0 0.00 0.00 0.00 25 1021.8
20260501231229 64 196 4.0 8.0 0.00 0.00 0.00 24 1021.8
20260501230231 65 180 1.0 4.0 0.00 0.00 0.00 26 1021.9
20260501225231 63 220 3.0 5.0 0.00 0.00 0.00 26 1021.8
20260501224245 63 247 0.0 1.0 0.00 0.00 0.00 25 1021.9
20260501223331 63 247 2.0 4.0 0.00 0.00 0.00 26 1021.9
20260501220330 64 180 3.0 5.0 0.00 0.00 0.00 25 1022.0
20260501215331 64 212 3.0 7.0 0.00 0.00 0.00 25 1022.3
20260501213430 63 247 3.0 5.0 0.00 0.00 0.00 25 1022.3
20260501212445 64 182 3.0 5.0 0.00 0.00 0.00 26 1022.4
20260501211430 62 235 4.0 6.0 0.00 0.00 0.00 26 1022.5
20260501210529 63 125 3.0 7.0 0.00 0.00 0.00 25 1022.8
20260501205548 63 161 3.0 5.0 0.00 0.00 0.00 25 1022.8
20260501204546 62 138 3.0 5.0 0.00 0.00 0.00 27 1023.0
20260501203531 61 180 1.0 3.0 0.00 0.00 0.00 29 1023.0
20260501202630 62 215 2.0 6.0 0.00 0.00 0.00 27 1023.0
20260501194729 59 282 3.0 4.0 0.00 0.00 0.00 28 1023.3
20260501193729 59 268 3.0 4.0 0.00 0.00 0.00 28 1023.3
20260501192730 60 299 3.0 4.0 0.00 0.00 0.00 28 1023.0
20260501190731 61 180 5.0 6.0 0.00 0.00 0.00 27 1023.2
20260501185829 61 311 0.0 3.0 0.00 0.00 0.00 27 1023.2
20260501184829 60 8 1.0 4.0 0.00 0.00 0.00 28 1023.3
20260501182930 58 67 4.0 6.0 0.00 0.00 0.00 30 1023.3
20260501181932 59 67 6.0 8.0 0.00 0.00 0.00 30 1023.4
20260501180929 58 70 6.0 9.0 0.00 0.00 0.00 29 1023.6
20260501175930 59 247 3.0 6.0 0.00 0.00 0.00 29 1023.8
20260501174930 58 283 2.0 3.0 0.00 0.00 0.00 30 1023.8
20260501173931 59 218 1.0 3.0 0.00 0.00 0.00 30 1024.0
20260501173031 59 340 0.0 1.0 0.00 0.00 0.00 30 1023.9
20260501171128 58 44 1.0 4.0 0.00 0.00 0.00 31 1024.0
20260501170132 57 67 1.0 4.0 0.00 0.00 0.00 32 1023.9
20260501164130 57 180 0.0 1.0 0.00 0.00 0.00 32 1023.8
20260501163130 55 180 2.0 5.0 0.00 0.00 0.00 33 1023.7